Location: Mountain View
(37.3861°N, 122.0839°W)
Time: 08:52:44
(UTC-07:00)

Envisat - Visible Passes

Search period start: 23 October 2018 00:00
Search period end: 02 November 2018 00:00
Orbit: 764 x 766 km, 98.2° (Epoch: 23 October)

Date Brightness Start Highest point End Pass type
(mag) Time Alt. Az. Time Alt. Az. Time Alt. Az.
23 Oct 3.6 19:24:55 10° SE 19:29:25 33° ENE 19:33:56 10° N visible
23 Oct 5.0 21:04:15 10° SSW 21:08:25 25° W 21:12:37 10° NW visible
24 Oct 4.5 18:50:10 10° E 18:53:02 15° ENE 18:55:55 10° NNE visible
24 Oct 3.4 20:26:32 10° S 20:31:32 59° W 20:36:33 10° NNW visible
25 Oct 2.9 19:49:51 10° SSE 19:54:49 59° ENE 19:59:50 10° N visible
25 Oct 5.8 21:31:36 10° WSW 21:34:12 14° W 21:36:48 10° WNW visible
26 Oct 3.9 19:14:08 10° ESE 19:18:19 26° ENE 19:22:30 10° NNE visible
26 Oct 4.6 20:52:39 10° SSW 20:57:10 32° W 21:01:43 10° NNW visible
27 Oct 4.7 18:40:08 10° E 18:42:01 12° ENE 18:43:53 10° NE visible
27 Oct 3.0 20:15:16 10° S 20:20:20 77° WSW 20:25:26 10° NNW visible
28 Oct 3.2 19:38:52 10° SE 19:43:41 46° ENE 19:48:32 10° N visible
28 Oct 5.5 21:19:29 10° SW 21:22:54 18° W 21:26:21 10° NW visible
29 Oct 4.2 19:03:30 10° ESE 19:07:14 21° ENE 19:10:59 10° NNE visible
29 Oct 4.1 20:41:10 10° S 20:45:56 42° W 20:50:45 10° NNW visible
30 Oct 2.8 20:04:05 10° SSE 20:09:09 84° ENE 20:14:16 10° N visible
31 Oct 3.5 19:27:57 10° SE 19:32:34 36° ENE 19:37:11 10° N visible
31 Oct 5.1 21:07:39 10° SSW 21:11:38 23° W 21:15:39 10° NW visible
01 Nov 4.4 18:53:01 10° ESE 18:56:10 17° ENE 18:59:20 10° NNE visible
01 Nov 3.6 20:29:46 10° S 20:34:43 54° W 20:39:42 10° NNW visible
